Location: Misciano
(43.5000°N, 11.9500°E)
Time: 06:29:45
(UTC+00:00)

Cosmos 220 Rocket - Pass Details

Date: 13 August 2020
Orbit: 575 x 617 km, 74.0° (Epoch: 23 September)

Event Time Altitude Azimuth Distance (km) Brightness Sun altitude
Rises 18:38:25 0° 341° (NNW) 2,796 8.1 -4.2°
Reaches altitude 10° 18:40:38 10° 343° (NNW) 1,896 7.2 -4.6°
Maximum altitude 18:44:51 74° 68° (ENE) 606 3.9 -5.3°
Drops below altitude 10° 18:49:04 10° 155° (SSE) 1,897 6.1 -6.0°
Enters shadow 18:51:08 - 157° (SSE) 2,739 6.9 -6.3°
